Погода в Северном

Россия / Томская область     60°40′48″N   77°11′08″E
темп.,
°C
ветер,
м/с
пор.,
м/с
влажн.,
%
обл.,
%
осадки,
мм/ч
давл.,
гПа
погр.,
м
8 марта, пн
пн801:00−14ююз349586 0.2 101027
04:00−15юв3496100 0.0 100857
07:00−13в51094100 0.1 1004273
10:00−11в71194100 1.3 997769
13:00−9св5894100 4.6 992589
16:00−9ссз81093100 2.8 991659
19:00−10зсз91488100 3.1 996776
22:00−14зсз81591100 0.0 1001407
9 марта, вт
вт901:00−18з6119593 0.1 1005207
04:00−21з459761 0.0 100890
07:00−22зюз339871 0.0 100950
10:00−20юз229694 0.0 101040
13:00−14ююв359195 0.1 1009388
16:00−10ю5789100 0.3 1008671
19:00−10ююв3695100 0.8 1006322
22:00−10ююв3596100 0.3 1005123
10 марта, ср
ср1001:00−10ю3495100 0.4 100485
04:00−11ююз489698 0.1 1004166
07:00−12юз469699 0.3 1005105
10:00−13зюз4796100 0.1 1006195
13:00−14з4593100 0.1 1008290
16:00−14сз4594100 0.1 1009242
19:00−18сз349596 0.1 100840
22:00−19с3396100 0.0 100728
11 марта, чт
чт1101:00−20ссв3499100 0.0 100648
04:00−22с4696100 0.0 1004118
07:00−25с4696100 0.0 1003109
10:00−25ссз4695100 0.0 1004198
13:00−23ссз4593100 0.0 1005248
16:00−21ссз4591100 0.0 1007343
19:00−21с3497100 0.1 1007189
22:00−24с3598100 0.1 1008115
12 марта, пт
пт1201:00−26с3598100 0.3 1008150
04:00−27с4697100 0.2 1008185
07:00−29ссз4697100 0.4 1009198
10:00−29ссз5695100 0.1 1011235
13:00−27сз579196 0.1 1013270
16:00−25зсз579244 0.0 1015291
19:00−27зсз339122 0.0 101853
22:00−27юз34950 0.0 102023